Location: Acheville
(50.3840°N, 2.8827°E)
Time: 09:26:46
(UTC+00:00)

SWARM C - Pass Details

Date: 24 October 2021
Orbit: 424 x 429 km, 87.3° (Epoch: 30 November)

Event Time Altitude Azimuth Distance (km) Brightness Sun altitude
Rises 18:24:15 0° 181° (S) 2,392 8.3 -17.4°
Reaches altitude 10° 18:26:16 10° 181° (S) 1,531 7.3 -17.8°
Maximum altitude 18:29:35 89° 93° (E) 439 4.4 -18.3°
Drops below altitude 10° 18:32:56 10° 3° (N) 1,546 7.3 -18.8°
Sets 18:34:59 0° 3° (N) 2,419 8.3 -19.2°
